Location: Novokuznetsk
(53.7500°N, 87.1000°E)
Time: 04:46:15
(UTC+06:00)

ISS - Pass Details

Date: 21 July 2018
Orbit: 402 x 408 km, 51.6° (Epoch: 16 July)

Event Time Altitude Azimuth Distance (km) Brightness Sun altitude
Rises 23:52:28 0° 263° (W) 2,324 0.0 -15.7°
Reaches altitude 10° 23:54:33 10° 260° (W) 1,465 -1.0 -15.7°
Maximum altitude 23:57:48 60° 179° (S) 469 -3.9 -15.7°
Drops below altitude 10° 00:01:03 10° 99° (E) 1,468 -1.1 -15.8°
Sets 00:03:09 0° 96° (E) 2,329 -0.1 -15.8°
